Weather History for Okeechobee, FL

Change the Weather History Date:

Monday, December 3, 2012

  Actual Average Record
Temperature  
Mean Temperature 68 °F -  
Max Temperature 78 °F 77 °F 86 °F (2007)
Min Temperature 59 °F 55 °F 37 °F (2010)
Cooling Degree Days 4    
Growing Degree Days 18 (Base 50)    
Moisture  
Dew Point 57 °F    
Average Humidity 77    
Maximum Humidity 100    
Minimum Humidity 41    
Precipitation  
Precipitation 0.00 in - - ()
Sea Level Pressure  
Sea Level Pressure 30.23 in    
Wind  
Wind Speed 3 mph (NE)    
Max Wind Speed 15 mph    
Max Gust Speed 21 mph    
Visibility 8 miles    
Events Rain    
Averages and records for this station are not official NWS values.
T = Trace of Precipitation, MM = Missing Value Source: NWS Daily Summary

Daily Weather History Graph

Daily Weather History Graph

Search for Another Location

Airport:

Trip Planner

Search our weather history database for the weather conditions in past years. The results will help you decide how hot, cold, wet, or windy it might be!

Date:

Astronomy

Dec. 03, 2012 Rise Set
Actual Time 6:57 AM EST 5:29 PM EST
Civil Twilight 6:32 AM EST 5:54 PM EST
Nautical Twilight 6:03 AM EST 6:23 PM EST
Astronomical Twilight 5:35 AM EST 6:51 PM EST
Moon 10:00 PM EST (12/3) 10:32 AM EST (12/3)
Length of Visible Light 11h 21m
Length of Day
10h 31m
Waning Gibbous, 78% of the Moon is Illuminated
Dec 3
Waning Gibbous
Dec 6
Last Quarter
Dec 13
New
Dec 20
First Quarter
Dec 28
Full

Hourly Weather History & Observations

Time (EST) Temp. Dew Point Humidity Pressure Visibility Wind Dir Wind Speed Gust Speed Precip Events Conditions
12:15 AM 64.4 °F 62.6 °F 94% 30.23 in 10.0 mi Calm Calm - N/A Rain Light Rain
12:35 AM 62.6 °F 62.6 °F 100% 30.22 in 10.0 mi Calm Calm - N/A   Overcast
12:55 AM 62.6 °F 62.6 °F 100% 30.22 in 7.0 mi Calm Calm - N/A   Mostly Cloudy
1:15 AM 62.6 °F 62.6 °F 100% 30.22 in 10.0 mi Calm Calm - N/A   Scattered Clouds
1:35 AM 60.8 °F 60.8 °F 100% 30.22 in 4.0 mi Calm Calm - N/A   Scattered Clouds
1:55 AM 60.8 °F 60.8 °F 100% 30.22 in 5.0 mi Calm Calm - N/A   Mostly Cloudy
2:15 AM 60.8 °F 60.8 °F 100% 30.22 in 5.0 mi Calm Calm - N/A   Mostly Cloudy
2:35 AM 60.8 °F 60.8 °F 100% 30.21 in 7.0 mi Calm Calm - N/A   Scattered Clouds
2:55 AM 59.0 °F 59.0 °F 100% 30.21 in 2.5 mi Calm Calm - N/A   Clear
3:15 AM 59.0 °F 59.0 °F 100% 30.21 in 1.2 mi Calm Calm - N/A   Mist
3:35 AM 60.8 °F 60.8 °F 100% 30.21 in 5.0 mi NNE 5.8 mph - N/A   Clear
3:55 AM 60.8 °F 60.8 °F 100% 30.21 in 5.0 mi North 3.5 mph - N/A   Clear
4:15 AM 59.0 °F 59.0 °F 100% 30.21 in 3.0 mi North 3.5 mph - N/A   Clear
4:35 AM 59.0 °F 59.0 °F 100% 30.22 in 2.5 mi Calm Calm - N/A   Clear
4:55 AM 59.0 °F 59.0 °F 100% 30.22 in 4.0 mi NNW 4.6 mph - N/A   Clear
5:15 AM 59.0 °F 59.0 °F 100% 30.22 in 7.0 mi North 3.5 mph - N/A   Clear
5:35 AM 59.0 °F 59.0 °F 100% 30.22 in 7.0 mi Calm Calm - N/A   Clear
5:55 AM 59.0 °F 59.0 °F 100% 30.22 in 5.0 mi Calm Calm - N/A   Clear
6:15 AM 59.0 °F 59.0 °F 100% 30.22 in 3.0 mi Calm Calm - N/A   Scattered Clouds
6:35 AM 59.0 °F 59.0 °F 100% 30.23 in 5.0 mi Calm Calm - N/A   Mostly Cloudy
6:55 AM 59.0 °F 59.0 °F 100% 30.24 in 7.0 mi Calm Calm - N/A   Overcast
7:15 AM 59.0 °F 59.0 °F 100% 30.24 in 7.0 mi North 3.5 mph - N/A   Mostly Cloudy
7:35 AM 60.8 °F 60.8 °F 100% 30.25 in 5.0 mi NNE 3.5 mph - N/A   Scattered Clouds
7:55 AM 60.8 °F 60.8 °F 100% 30.25 in 7.0 mi Calm Calm - N/A   Scattered Clouds
8:15 AM 62.6 °F 60.8 °F 94% 30.26 in 7.0 mi North 3.5 mph - N/A   Mostly Cloudy
8:35 AM 62.6 °F 62.6 °F 100% 30.26 in 10.0 mi North 3.5 mph - N/A   Scattered Clouds
8:55 AM 64.4 °F 62.6 °F 94% 30.27 in 10.0 mi Calm Calm - N/A   Clear
9:15 AM 66.2 °F 62.6 °F 88% 30.27 in 10.0 mi Calm Calm - N/A   Clear
9:35 AM 69.8 °F 64.4 °F 83% 30.28 in 10.0 mi Calm Calm - N/A   Clear
9:55 AM 71.6 °F 62.6 °F 73% 30.28 in 10.0 mi ENE 3.5 mph - N/A   Scattered Clouds
10:15 AM 73.4 °F 64.4 °F 73% 30.28 in 10.0 mi NE 3.5 mph - N/A   Scattered Clouds
10:35 AM 73.4 °F 62.6 °F 69% 30.28 in 10.0 mi NE 4.6 mph - N/A   Scattered Clouds
10:55 AM 75.2 °F 60.8 °F 61% 30.27 in 10.0 mi NE 9.2 mph - N/A   Scattered Clouds
11:15 AM 73.4 °F 59.0 °F 61% 30.27 in 10.0 mi East 8.1 mph - N/A   Scattered Clouds
11:35 AM 77.0 °F 57.2 °F 50% 30.26 in 10.0 mi East 8.1 mph - N/A   Scattered Clouds
11:55 AM 77.0 °F 55.4 °F 47% 30.25 in 10.0 mi NE 8.1 mph - N/A   Scattered Clouds
12:15 PM 78.8 °F 53.6 °F 42% 30.25 in 10.0 mi East 9.2 mph - N/A   Mostly Cloudy
12:35 PM 77.0 °F 53.6 °F 44% 30.24 in 10.0 mi East 8.1 mph 16.1 mph N/A   Mostly Cloudy
12:55 PM 77.0 °F 55.4 °F 47% 30.23 in 10.0 mi NE 9.2 mph - N/A   Scattered Clouds
1:15 PM 77.0 °F 55.4 °F 47% 30.22 in 10.0 mi NE 11.5 mph - N/A   Scattered Clouds
1:35 PM 77.0 °F 53.6 °F 44% 30.21 in 10.0 mi East 9.2 mph - N/A   Scattered Clouds
1:55 PM 77.0 °F 51.8 °F 41% 30.21 in 10.0 mi ENE 11.5 mph 20.7 mph N/A   Scattered Clouds
2:15 PM 77.0 °F 53.6 °F 44% 30.20 in 10.0 mi NE 10.4 mph 17.3 mph N/A   Clear
2:35 PM 77.0 °F 53.6 °F 44% 30.20 in 10.0 mi NE 11.5 mph 19.6 mph N/A   Clear
2:55 PM 77.0 °F 51.8 °F 41% 30.20 in 10.0 mi NE 11.5 mph - N/A   Clear
3:15 PM 77.0 °F 51.8 °F 41% 30.20 in 10.0 mi ENE 15.0 mph 19.6 mph N/A   Clear
3:35 PM 77.0 °F 51.8 °F 41% 30.19 in 10.0 mi ENE 9.2 mph 16.1 mph N/A   Clear
3:55 PM 77.0 °F 51.8 °F 41% 30.20 in 10.0 mi ENE 11.5 mph 17.3 mph N/A   Clear
4:15 PM 75.2 °F 51.8 °F 44% 30.20 in 10.0 mi ENE 9.2 mph 18.4 mph N/A   Clear
4:35 PM 73.4 °F 51.8 °F 47% 30.20 in 10.0 mi NE 10.4 mph - N/A   Clear
4:55 PM 73.4 °F 53.6 °F 50% 30.21 in 10.0 mi ENE 10.4 mph - N/A   Clear
5:15 PM 71.6 °F 53.6 °F 53% 30.21 in 10.0 mi ENE 5.8 mph - N/A   Clear
5:35 PM 69.8 °F 55.4 °F 60% 30.21 in 10.0 mi ENE 3.5 mph - N/A   Clear
5:55 PM 68.0 °F 53.6 °F 60% 30.22 in 10.0 mi NE 4.6 mph - N/A   Clear
6:15 PM 66.2 °F 53.6 °F 64% 30.22 in 10.0 mi NE 4.6 mph - N/A   Clear
6:35 PM 64.4 °F 53.6 °F 68% 30.22 in 10.0 mi NE 4.6 mph - N/A   Clear
7:15 PM 62.6 °F 53.6 °F 72% 30.23 in 10.0 mi NE 3.5 mph - N/A   Clear
7:35 PM 60.8 °F 53.6 °F 77% 30.24 in 10.0 mi NE 3.5 mph - N/A   Clear
7:55 PM 60.8 °F 53.6 °F 77% 30.24 in 10.0 mi NNE 3.5 mph - N/A   Clear
8:15 PM 60.8 °F 53.6 °F 77% 30.24 in 10.0 mi Calm Calm - N/A   Clear
8:35 PM 60.8 °F 53.6 °F 77% 30.24 in 10.0 mi Calm Calm - N/A   Clear
8:55 PM 60.8 °F 55.4 °F 82% 30.24 in 10.0 mi NNE 3.5 mph - N/A   Mostly Cloudy
9:15 PM 60.8 °F 55.4 °F 82% 30.24 in 10.0 mi Calm Calm - N/A   Mostly Cloudy
9:35 PM 59.0 °F 55.4 °F 88% 30.25 in 10.0 mi Calm Calm - N/A   Scattered Clouds
9:55 PM 59.0 °F 55.4 °F 88% 30.25 in 10.0 mi Calm Calm - N/A   Clear
10:15 PM 59.0 °F 55.4 °F 88% 30.24 in 10.0 mi Calm Calm - N/A   Mostly Cloudy
10:35 PM 59.0 °F 55.4 °F 88% 30.25 in 10.0 mi ENE 4.6 mph - N/A   Overcast
10:55 PM 60.8 °F 55.4 °F 82% 30.25 in 10.0 mi Calm Calm - N/A   Overcast
11:15 PM 60.8 °F 57.2 °F 88% 30.25 in 10.0 mi Calm Calm - N/A   Overcast
11:35 PM 60.8 °F 57.2 °F 88% 30.25 in 10.0 mi Calm Calm - N/A   Light Drizzle
11:55 PM 60.8 °F 59.0 °F 94% 30.25 in 10.0 mi Calm Calm - N/A Rain Light Rain